OK2ZI Weather Reports


time (UTC)temp
C
wind
direction
speed
KPH
gust
KPH
rain 1hr
cm
rain 24hr
cm
rain mn
cm
humidity
%
barometer
mb
20260507035406 11 216 9.7 9.7 0.00 0.00 0.00 90 1007.0
20260507035010 11 198 12.9 12.9 0.00 0.00 0.00 89 1007.0
20260507034807 11 210 11.3 11.3 0.00 0.00 0.00 90 1007.0
20260507034605 11 222 14.5 14.5 0.00 0.00 0.00 89 1007.0
20260507034406 11 180 11.3 11.3 0.00 0.00 0.00 89 1007.0
20260507034206 11 198 14.5 14.5 0.00 0.00 0.00 89 1007.0
20260507034010 11 168 22.5 22.5 0.00 0.00 0.00 89 1007.0
20260507033806 11 198 14.5 14.5 0.00 0.00 0.00 89 1007.0
20260507033606 11 174 14.5 14.5 0.00 0.00 0.00 89 1007.0
20260507033407 11 216 22.5 22.5 0.00 0.00 0.00 89 1007.0
20260507033206 11 174 24.1 24.1 0.00 0.00 0.00 90 1007.0
20260507033015 11 174 22.5 22.5 0.00 0.00 0.00 90 1007.0
20260507032806 11 168 12.9 12.9 0.00 0.00 0.00 90 1007.0
20260507032606 11 180 14.5 14.5 0.00 0.00 0.00 90 1007.0
20260507032406 11 174 14.5 14.5 0.00 0.00 0.00 90 1006.0
20260507032206 11 174 24.1 24.1 0.00 0.00 0.00 90 1006.0
20260507032012 11 186 8.0 8.0 0.00 0.00 0.00 90 1006.0
20260507031807 11 198 12.9 12.9 0.00 0.00 0.00 90 1006.0
20260507031606 11 198 14.5 14.5 0.00 0.00 0.00 90 1006.0
20260507031407 11 204 12.9 12.9 0.00 0.00 0.00 90 1006.0
20260507031206 11 174 12.9 12.9 0.00 0.00 0.00 90 1006.0
20260507031010 11 216 22.5 22.5 0.00 0.00 0.00 90 1006.0
20260507030806 11 216 29.0 30.6 0.00 0.00 0.00 90 1006.0
20260507030606 11 222 35.4 37.0 0.00 0.00 0.00 90 1006.0
20260507030206 11 222 12.9 12.9 0.00 0.00 0.00 90 1006.0
20260507025806 11 228 25.7 27.4 0.00 0.00 0.00 90 1006.0
20260507025606 11 236 32.2 35.4 0.00 0.00 0.00 90 1006.0
20260507025407 11 240 25.7 27.4 0.00 0.00 0.00 91 1006.0
20260507025206 11 228 22.5 22.5 0.00 0.00 0.00 91 1006.0
20260507025011 11 210 25.7 27.4 0.00 0.00 0.00 91 1006.0
20260507024806 11 228 24.1 24.1 0.00 0.00 0.00 91 1006.0
20260507024605 11 228 38.6 45.1 0.00 0.00 0.00 92 1006.0
20260507024407 11 240 22.5 22.5 0.00 0.00 0.00 92 1006.0
20260507024010 11 228 27.4 29.0 0.00 0.00 0.00 92 1006.0
20260507023806 11 222 25.7 27.4 0.00 0.00 0.00 92 1006.0
20260507023606 11 222 22.5 22.5 0.00 0.00 0.00 92 1006.0
20260507023206 11 228 24.1 27.4 0.00 0.00 0.00 92 1006.0
20260507023013 11 228 22.5 22.5 0.00 0.00 0.00 92 1006.0
20260507022806 11 228 22.5 22.5 0.00 0.00 0.00 92 1006.0
20260507022407 10 234 14.5 14.5 0.00 0.00 0.00 92 1006.0
20260507022206 10 204 32.2 33.8 0.00 0.00 0.00 92 1006.0
20260507022009 10 240 32.2 35.4 0.00 0.00 0.00 92 1006.0
20260507021806 10 228 27.4 29.0 0.00 0.00 0.00 92 1006.0
20260507021606 10 228 27.4 29.0 0.00 0.00 0.00 93 1006.0
20260507021407 10 204 22.5 22.5 0.00 0.00 0.00 94 1006.0
20260507021206 10 228 25.7 27.4 0.00 0.00 0.00 94 1006.0
20260507020806 10 204 22.5 22.5 0.00 0.00 0.00 94 1006.0
20260507020606 10 210 22.5 22.5 0.00 0.00 0.00 94 1006.0
20260507020407 10 216 22.5 22.5 0.00 0.00 0.00 93 1006.0
20260507020206 10 186 12.9 12.9 0.00 0.00 0.00 93 1006.0
20260507020021 10 180 12.9 12.9 0.00 0.00 0.00 93 1006.0
20260507015807 10 180 14.5 14.5 0.00 0.00 0.00 93 1006.0
20260507015407 10 174 14.5 14.5 0.00 0.00 0.00 93 1006.0
20260507015206 10 180 12.9 12.9 0.00 0.00 0.00 93 1006.0
20260507015010 10 180 12.9 12.9 0.00 0.00 0.00 93 1006.0
20260507014806 10 180 12.9 12.9 0.00 0.00 0.00 93 1006.0
20260507014606 10 186 11.3 11.3 0.00 0.00 0.00 93 1006.0
20260507014407 10 186 9.7 9.7 0.00 0.00 0.00 94 1006.0
20260507014207 10 186 12.9 12.9 0.00 0.00 0.00 94 1006.0
20260507014011 10 192 9.7 9.7 0.00 0.00 0.00 94 1006.0
20260507013805 10 192 12.9 12.9 0.00 0.00 0.00 94 1006.0
20260507013606 10 192 12.9 12.9 0.00 0.00 0.00 94 1006.0
20260507013406 10 234 0.0 0.0 0.00 0.00 0.00 94 1006.0
20260507013206 10 234 0.0 0.0 0.00 0.00 0.00 93 1006.0
20260507013013 10 234 0.0 0.0 0.00 0.00 0.00 93 1006.0
20260507012805 10 234 0.0 0.0 0.00 0.00 0.00 93 1006.0
20260507012606 10 234 0.0 0.0 0.00 0.00 0.00 93 1006.0
20260507012406 10 234 0.0 0.0 0.00 0.00 0.00 93 1006.0
20260507012206 10 234 0.0 0.0 0.00 0.00 0.00 92 1006.0
20260507012011 10 234 0.0 0.0 0.00 0.00 0.00 92 1006.0
20260507011807 10 234 0.0 0.0 0.00 0.00 0.00 91 1006.0
20260507011607 10 234 8.0 8.0 0.00 0.00 0.00 91 1006.0
20260507011406 11 234 0.0 0.0 0.00 0.00 0.00 91 1005.0
20260507011206 11 234 0.0 0.0 0.00 0.00 0.00 90 1005.0
20260507011010 11 234 0.0 0.0 0.00 0.00 0.00 90 1005.0
20260507010607 11 234 0.0 0.0 0.00 0.00 0.00 90 1005.0
20260507010407 11 234 9.7 9.7 0.00 0.00 0.00 89 1005.0
20260507010206 11 234 11.3 11.3 0.00 0.00 0.00 90 1005.0
20260507010019 11 234 9.7 9.7 0.00 0.00 0.00 89 1005.0
20260507005807 11 234 11.3 11.3 0.00 0.00 0.00 89 1005.0
20260507005606 11 234 8.0 8.0 0.00 0.00 0.00 89 1005.0
20260507005206 11 234 8.0 8.0 0.00 0.00 0.00 89 1005.0
20260507005010 11 234 0.0 0.0 0.00 0.00 0.00 89 1005.0
20260507004605 11 234 14.5 14.5 0.00 0.00 0.00 88 1005.0
20260507004406 11 234 0.0 0.0 0.00 0.00 0.00 88 1005.0
20260507004207 11 234 12.9 12.9 0.00 0.00 0.00 88 1005.0
20260507003806 11 228 14.5 14.5 0.00 0.00 0.00 87 1005.0
20260507003605 11 228 22.5 22.5 0.00 0.00 0.00 87 1005.0
20260507003406 11 222 24.1 24.1 0.00 0.00 0.00 87 1005.0
20260507003207 11 222 14.5 14.5 0.00 0.00 0.00 87 1005.0
20260507003014 11 228 12.9 12.9 0.00 0.00 0.00 87 1005.0
20260507002607 11 186 9.7 9.7 0.00 0.00 0.00 87 1005.0
20260507002406 11 186 12.9 12.9 0.00 0.00 0.00 87 1005.0
20260507002011 11 204 11.3 11.3 0.00 0.00 0.00 87 1005.0
20260507001807 11 204 12.9 12.9 0.00 0.00 0.00 86 1005.0
20260507001607 11 204 12.9 12.9 0.00 0.00 0.00 86 1005.0
20260507001406 11 186 9.7 9.7 0.00 0.00 0.00 86 1005.0
20260507001207 11 186 12.9 12.9 0.00 0.00 0.00 85 1005.0
20260507001012 11 222 11.3 11.3 0.00 0.00 0.00 85 1005.0
20260507000806 11 216 9.7 9.7 0.00 0.00 0.00 85 1005.0
20260507000607 11 192 14.5 14.5 0.00 0.00 0.00 85 1005.0
20260507000406 11 258 12.9 12.9 0.00 0.00 0.00 86 1005.0
20260507000207 11 270 14.5 14.5 0.00 0.00 0.00 86 1005.0
20260507000017 11 294 11.3 11.3 0.00 0.00 0.00 86 1005.0
20260506235806 11 306 9.7 9.7 0.00 0.00 0.00 86 1005.0
20260506235606 11 258 11.3 11.3 0.00 0.00 0.00 86 1005.0
20260506235406 11 258 9.7 9.7 0.00 0.00 0.00 85 1005.0
20260506235206 11 258 0.0 0.0 0.00 0.00 0.00 85 1005.0
20260506234607 11 258 9.7 9.7 0.00 0.00 0.00 84 1005.0
20260506234407 11 258 8.0 8.0 0.00 0.00 0.00 84 1005.0
20260506234206 11 246 11.3 11.3 0.00 0.00 0.00 83 1005.0
20260506233806 12 241 9.7 9.7 0.00 0.00 0.00 83 1005.0
20260506233606 12 240 8.0 8.0 0.00 0.00 0.00 82 1005.0
20260506233407 12 240 0.0 0.0 0.00 0.00 0.00 82 1005.0
20260506233206 12 240 14.5 14.5 0.00 0.00 0.00 82 1005.0
20260506233014 12 240 12.9 12.9 0.00 0.00 0.00 81 1005.0
20260506232806 12 228 11.3 11.3 0.00 0.00 0.00 82 1005.0
20260506232606 12 222 14.5 14.5 0.00 0.00 0.00 81 1005.0
20260506232407 12 216 24.1 24.1 0.00 0.00 0.00 81 1005.0
20260506232207 12 240 24.1 24.1 0.00 0.00 0.00 81 1005.0
20260506232010 12 276 14.5 14.5 0.00 0.00 0.00 81 1005.0
20260506231806 12 222 22.5 22.5 0.00 0.00 0.00 81 1005.0
20260506231606 12 240 22.5 22.5 0.00 0.00 0.00 80 1005.0
20260506231406 12 198 14.5 14.5 0.00 0.00 0.00 80 1005.0
20260506231206 12 264 24.1 24.1 0.00 0.00 0.00 81 1005.0
20260506230807 12 216 24.1 27.4 0.00 0.00 0.00 83 1005.0
20260506230406 12 204 14.5 14.5 0.00 0.00 0.00 84 1004.0
20260506230206 12 228 25.7 27.4 0.00 0.00 0.00 83 1004.0
20260506230017 12 222 22.5 22.5 0.00 0.00 0.00 84 1004.0
20260506225605 12 230 12.9 12.9 0.00 0.00 0.00 83 1004.0
20260506225407 12 230 9.7 9.7 0.00 0.00 0.00 83 1004.0
20260506225206 12 230 12.9 12.9 0.00 0.00 0.00 83 1004.0
20260506225010 12 234 12.9 12.9 0.00 0.00 0.00 82 1004.0
20260506223806 12 276 22.5 22.5 0.00 0.00 0.00 80 1004.0
20260506223606 12 281 22.5 22.5 0.00 0.00 0.00 80 1004.0
20260506223407 12 280 14.5 14.5 0.00 0.00 0.00 80 1003.0
20260506223207 13 288 14.5 14.5 0.00 0.00 0.00 79 1003.0
20260506223014 13 274 14.5 14.5 0.00 0.00 0.00 79 1004.0
20260506222806 13 276 14.5 14.5 0.00 0.00 0.00 78 1004.0
20260506222407 13 294 22.5 22.5 0.00 0.00 0.00 77 1004.0
20260506222206 13 264 25.7 27.4 0.00 0.00 0.00 77 1004.0
20260506222011 13 262 24.1 24.1 0.00 0.00 0.00 77 1003.0
20260506221605 13 288 35.4 40.2 0.00 0.00 0.00 76 1003.0
20260506221407 14 286 35.4 38.6 0.00 0.00 0.00 77 1004.0
20260506221011 13 270 22.5 22.5 0.00 0.00 0.00 77 1003.0
20260506220806 13 288 32.2 35.4 0.00 0.00 0.00 77 1003.0
20260506220606 13 246 35.4 38.6 0.00 0.00 0.00 77 1003.0
20260506220407 13 262 37.0 41.8 0.00 0.00 0.00 77 1003.0
20260506220020 14 274 46.7 48.3 0.00 0.00 0.00 76 1003.0
20260506215806 14 291 30.6 32.2 0.00 0.00 0.00 76 1003.0
20260506215611 14 234 30.6 32.2 0.00 0.00 0.00 77 1003.0
20260506215406 14 300 29.0 30.6 0.00 0.00 0.00 77 1003.0
20260506215206 14 279 32.2 35.4 0.00 0.00 0.00 77 1003.0
20260506215008 14 236 12.9 12.9 0.00 0.00 0.00 77 1003.0
20260506214606 14 222 0.0 0.0 0.00 0.00 0.00 76 1003.0
20260506214407 14 216 22.5 22.5 0.00 0.00 0.00 76 1003.0
20260506214206 14 198 27.4 29.0 0.00 0.00 0.00 75 1003.0
20260506214010 15 228 29.0 30.6 0.00 0.00 0.00 75 1003.0
20260506213806 15 230 14.5 14.5 0.00 0.00 0.00 74 1003.0
20260506213606 15 230 22.5 22.5 0.00 0.00 0.00 74 1003.0
20260506213407 15 240 14.5 14.5 0.00 0.00 0.00 73 1003.0
20260506213207 15 222 32.2 35.4 0.00 0.00 0.00 72 1003.0
20260506213015 15 210 25.7 29.0 0.00 0.00 0.00 71 1003.0
20260506212807 15 246 38.6 41.8 0.00 0.00 0.00 71 1003.0
20260506212605 15 204 29.0 30.6 0.00 0.00 0.00 71 1003.0
20260506212406 15 186 51.5 54.7 0.00 0.00 0.00 70 1003.0
20260506212205 15 216 25.7 29.0 0.00 0.00 0.00 69 1003.0
20260506212011 15 216 27.4 29.0 0.00 0.00 0.00 68 1003.0
20260506211806 15 162 24.1 27.4 0.00 0.00 0.00 68 1003.0
20260506211606 14 174 14.5 14.5 0.00 0.00 0.00 68 1003.0
20260506211411 14 174 27.4 29.0 0.00 0.00 0.00 69 1003.0
20260506211206 14 186 30.6 32.2 0.00 0.00 0.00 70 1003.0
20260506211010 14 186 8.0 8.0 0.00 0.00 0.00 70 1002.0
20260506210805 14 168 12.9 12.9 0.00 0.00 0.00 70 1002.0
20260506210605 14 180 14.5 14.5 0.00 0.00 0.00 70 1002.0
20260506210207 14 186 0.0 0.0 0.00 0.00 0.00 70 1002.0
20260506210018 14 174 14.5 14.5 0.00 0.00 0.00 71 1002.0
20260506205806 15 174 12.9 12.9 0.00 0.00 0.00 70 1002.0
20260506205406 15 174 8.0 8.0 0.00 0.00 0.00 68 1002.0
20260506205206 15 174 12.9 12.9 0.00 0.00 0.00 68 1002.0
20260506205011 15 132 9.7 9.7 0.00 0.00 0.00 68 1002.0
20260506204806 15 132 0.0 0.0 0.00 0.00 0.00 67 1002.0
20260506204407 16 132 0.0 0.0 0.00 0.00 0.00 67 1002.0
20260506204206 16 132 0.0 0.0 0.00 0.00 0.00 67 1002.0
20260506203806 16 132 0.0 0.0 0.00 0.00 0.00 66 1002.0
20260506203607 16 132 0.0 0.0 0.00 0.00 0.00 66 1002.0
20260506203407 16 185 0.0 0.0 0.00 0.00 0.00 66 1002.0
20260506203207 16 186 0.0 0.0 0.00 0.00 0.00 66 1002.0
20260506203015 16 186 8.0 8.0 0.00 0.00 0.00 66 1002.0
20260506202807 16 186 0.0 0.0 0.00 0.00 0.00 66 1002.0
20260506202606 16 186 0.0 0.0 0.00 0.00 0.00 66 1002.0
20260506202406 16 192 0.0 0.0 0.00 0.00 0.00 65 1002.0
20260506202206 16 192 0.0 0.0 0.00 0.00 0.00 65 1002.0
20260506202011 16 174 0.0 0.0 0.00 0.00 0.00 65 1002.0
20260506201806 16 174 0.0 0.0 0.00 0.00 0.00 65 1002.0
20260506201406 16 180 0.0 0.0 0.00 0.00 0.00 65 1002.0
20260506201206 16 180 0.0 0.0 0.00 0.00 0.00 65 1002.0
20260506201011 16 185 0.0 0.0 0.00 0.00 0.00 65 1002.0
20260506200806 16 185 0.0 0.0 0.00 0.00 0.00 65 1002.0
20260506200606 16 185 0.0 0.0 0.00 0.00 0.00 64 1002.0
20260506200407 16 180 0.0 0.0 0.00 0.00 0.00 64 1002.0
20260506200207 16 180 0.0 0.0 0.00 0.00 0.00 64 1002.0
20260506200017 16 186 0.0 0.0 0.00 0.00 0.00 64 1002.0
20260506195610 16 186 0.0 0.0 0.00 0.00 0.00 63 1002.0
20260506195407 16 180 0.0 0.0 0.00 0.00 0.00 63 1002.0
20260506195208 16 186 0.0 0.0 0.00 0.00 0.00 63 1002.0
20260506195011 17 186 0.0 0.0 0.00 0.00 0.00 63 1002.0
20260506194807 17 186 0.0 0.0 0.00 0.00 0.00 62 1002.0
20260506194607 17 180 0.0 0.0 0.00 0.00 0.00 62 1002.0
20260506194407 17 162 8.0 8.0 0.00 0.00 0.00 62 1002.0
20260506194206 17 126 0.0 0.0 0.00 0.00 0.00 62 1002.0
20260506194012 17 126 0.0 0.0 0.00 0.00 0.00 61 1002.0
20260506193405 17 174 0.0 0.0 0.00 0.00 0.00 61 1002.0
20260506193207 17 174 0.0 0.0 0.00 0.00 0.00 61 1002.0
20260506193011 17 61 0.0 0.0 0.00 0.00 0.00 60 1002.0
20260506192805 17 48 14.5 14.5 0.00 0.00 0.00 61 1002.0
20260506192607 17 186 0.0 0.0 0.00 0.00 0.00 60 1002.0
20260506192205 17 72 0.0 0.0 0.00 0.00 0.00 60 1002.0
20260506191807 17 138 8.0 8.0 0.00 0.00 0.00 60 1002.0
20260506191607 17 186 11.3 11.3 0.00 0.00 0.00 60 1002.0
20260506191405 17 162 0.0 0.0 0.00 0.00 0.00 59 1002.0
20260506191207 17 180 0.0 0.0 0.00 0.00 0.00 59 1002.0
20260506191012 17 162 0.0 0.0 0.00 0.00 0.00 59 1001.0
20260506190807 17 216 8.0 8.0 0.00 0.00 0.00 59 1001.0
20260506190407 17 132 0.0 0.0 0.00 0.00 0.00 58 1002.0
20260506190206 17 180 0.0 0.0 0.00 0.00 0.00 58 1002.0
20260506190019 17 204 12.9 12.9 0.00 0.00 0.00 58 1002.0
20260506185807 17 192 0.0 0.0 0.00 0.00 0.00 58 1002.0
20260506185407 18 145 0.0 0.0 0.00 0.00 0.00 58 1002.0
20260506185206 18 186 0.0 0.0 0.00 0.00 0.00 58 1002.0
20260506184807 18 196 0.0 0.0 0.00 0.00 0.00 57 1002.0
20260506184607 18 185 0.0 0.0 0.00 0.00 0.00 57 1002.0
20260506184012 18 216 0.0 0.0 0.00 0.00 0.00 56 1002.0
20260506183807 18 216 11.3 11.3 0.00 0.00 0.00 56 1002.0
20260506183606 18 120 11.3 11.3 0.00 0.00 0.00 56 1002.0
20260506183207 18 78 8.0 8.0 0.00 0.00 0.00 56 1001.0
20260506182807 18 156 0.0 0.0 0.00 0.00 0.00 56 1002.0
20260506182605 18 162 11.3 11.3 0.00 0.00 0.00 55 1002.0
20260506182205 18 156 11.3 11.3 0.00 0.00 0.00 55 1001.0
20260506182013 18 156 0.0 0.0 0.00 0.00 0.00 55 1001.0
20260506181807 18 156 9.7 9.7 0.00 0.00 0.00 55 1001.0
20260506181606 18 162 8.0 8.0 0.00 0.00 0.00 54 1001.0
20260506181406 19 162 0.0 0.0 0.00 0.00 0.00 54 1001.0
20260506181207 19 180 14.5 14.5 0.00 0.00 0.00 54 1001.0
20260506181008 19 174 0.0 0.0 0.00 0.00 0.00 54 1001.0
20260506180805 19 208 8.0 8.0 0.00 0.00 0.00 54 1001.0
20260506180607 19 108 9.7 9.7 0.00 0.00 0.00 53 1001.0
20260506180407 19 138 9.7 9.7 0.00 0.00 0.00 53 1001.0
20260506180019 19 162 8.0 8.0 0.00 0.00 0.00 53 1001.0
20260506175807 19 132 0.0 0.0 0.00 0.00 0.00 53 1001.0
20260506175640 19 174 9.7 9.7 0.00 0.00 0.00 53 1001.0
20260506175407 20 222 11.3 11.3 0.00 0.00 0.00 52 1001.0
20260506175206 20 120 9.7 9.7 0.00 0.00 0.00 52 1001.0
20260506175011 20 192 12.9 12.9 0.00 0.00 0.00 51 1001.0
20260506174811 20 144 0.0 0.0 0.00 0.00 0.00 51 1001.0
20260506174606 20 198 0.0 0.0 0.00 0.00 0.00 51 1001.0
20260506174406 20 108 8.0 8.0 0.00 0.00 0.00 50 1001.0
20260506174207 20 204 8.0 8.0 0.00 0.00 0.00 50 1001.0
20260506174012 20 144 9.7 9.7 0.00 0.00 0.00 50 1001.0
20260506173807 20 162 30.6 35.4 0.00 0.00 0.00 49 1001.0
20260506173606 20 150 0.0 0.0 0.00 0.00 0.00 49 1001.0
20260506173406 20 138 8.0 8.0 0.00 0.00 0.00 49 1001.0
20260506173015 20 185 9.7 9.7 0.00 0.00 0.00 49 1001.0
20260506172807 21 185 8.0 8.0 0.00 0.00 0.00 48 1001.0
20260506172606 21 167 0.0 0.0 0.00 0.00 0.00 48 1001.0
20260506172407 21 168 9.7 9.7 0.00 0.00 0.00 47 1001.0
20260506172207 21 179 22.5 22.5 0.00 0.00 0.00 46 1001.0
20260506171807 21 138 0.0 0.0 0.00 0.00 0.00 46 1001.0
20260506171607 21 234 12.9 12.9 0.00 0.00 0.00 46 1001.0
20260506171406 21 114 12.9 12.9 0.00 0.00 0.00 46 1001.0
20260506171206 21 138 12.9 12.9 0.00 0.00 0.00 46 1001.0
20260506171012 21 100 14.5 14.5 0.00 0.00 0.00 47 1001.0
20260506170807 22 162 12.9 12.9 0.00 0.00 0.00 46 1001.0
20260506170606 22 189 12.9 12.9 0.00 0.00 0.00 46 1001.0
20260506170407 21 156 11.3 11.3 0.00 0.00 0.00 46 1001.0
20260506170206 21 96 11.3 11.3 0.00 0.00 0.00 46 1001.0
20260506170016 21 126 0.0 0.0 0.00 0.00 0.00 46 1001.0
20260506165806 21 132 14.5 14.5 0.00 0.00 0.00 46 1001.0
20260506165406 21 117 14.5 14.5 0.00 0.00 0.00 47 1001.0
20260506165011 21 106 11.3 11.3 0.00 0.00 0.00 47 1001.0
20260506164806 21 162 0.0 0.0 0.00 0.00 0.00 47 1001.0
20260506164606 21 144 12.9 12.9 0.00 0.00 0.00 46 1001.0
20260506164406 21 198 12.9 12.9 0.00 0.00 0.00 46 1002.0
20260506164212 21 132 11.3 11.3 0.00 0.00 0.00 46 1002.0
20260506164011 21 168 14.5 14.5 0.00 0.00 0.00 46 1002.0
20260506163806 22 168 9.7 9.7 0.00 0.00 0.00 46 1002.0
20260506163606 22 210 14.5 14.5 0.00 0.00 0.00 46 1002.0
20260506163206 22 180 22.5 22.5 0.00 0.00 0.00 46 1002.0
20260506163015 22 126 8.0 8.0 0.00 0.00 0.00 46 1002.0
20260506162607 22 192 24.1 24.1 0.00 0.00 0.00 46 1002.0
20260506162407 22 101 14.5 14.5 0.00 0.00 0.00 45 1002.0
20260506162207 22 198 12.9 12.9 0.00 0.00 0.00 45 1002.0
20260506162011 22 186 25.7 29.0 0.00 0.00 0.00 45 1002.0
20260506161807 22 192 14.5 14.5 0.00 0.00 0.00 45 1002.0
20260506161607 22 138 12.9 12.9 0.00 0.00 0.00 45 1002.0
20260506161407 22 140 22.5 22.5 0.00 0.00 0.00 44 1002.0
20260506161206 22 192 24.1 24.1 0.00 0.00 0.00 44 1002.0
20260506161012 22 152 12.9 12.9 0.00 0.00 0.00 44 1002.0
20260506160807 22 157 12.9 12.9 0.00 0.00 0.00 43 1002.0
20260506160406 23 210 32.2 35.4 0.00 0.00 0.00 42 1002.0
20260506160018 23 138 11.3 11.3 0.00 0.00 0.00 41 1002.0
20260506155806 23 138 14.5 14.5 0.00 0.00 0.00 41 1002.0
20260506155606 22 124 11.3 11.3 0.00 0.00 0.00 41 1002.0
20260506155407 22 178 14.5 14.5 0.00 0.00 0.00 42 1002.0
20260506155206 22 205 27.4 29.0 0.00 0.00 0.00 42 1002.0
20260506155011 23 162 12.9 12.9 0.00 0.00 0.00 42 1002.0
20260506154607 23 210 12.9 12.9 0.00 0.00 0.00 41 1002.0
20260506154406 22 204 24.1 27.4 0.00 0.00 0.00 41 1002.0
20260506154009 22 162 12.9 12.9 0.00 0.00 0.00 40 1002.0
20260506153807 22 126 12.9 12.9 0.00 0.00 0.00 41 1002.0
20260506153607 22 147 8.0 8.0 0.00 0.00 0.00 42 1002.0
20260506153404 22 174 22.5 22.5 0.00 0.00 0.00 43 1002.0
20260506153015 22 192 29.0 30.6 0.00 0.00 0.00 42 1002.0
20260506152407 22 104 0.0 0.0 0.00 0.00 0.00 42 1002.0
20260506152212 22 113 12.9 12.9 0.00 0.00 0.00 42 1002.0
20260506152008 22 132 8.0 8.0 0.00 0.00 0.00 43 1003.0
20260506151807 22 114 12.9 12.9 0.00 0.00 0.00 43 1003.0
20260506151607 22 147 0.0 0.0 0.00 0.00 0.00 42 1003.0
20260506151405 22 105 29.0 30.6 0.00 0.00 0.00 41 1003.0
20260506151205 24 246 24.1 27.4 0.00 0.00 0.00 40 1003.0
20260506150806 23 132 14.5 14.5 0.00 0.00 0.00 39 1003.0
20260506150405 23 173 22.5 22.5 0.00 0.00 0.00 40 1003.0
20260506150206 22 106 12.9 12.9 0.00 0.00 0.00 40 1003.0
20260506150016 22 147 8.0 8.0 0.00 0.00 0.00 41 1003.0
20260506145806 22 198 14.5 14.5 0.00 0.00 0.00 41 1003.0
20260506145606 23 186 24.1 27.4 0.00 0.00 0.00 40 1003.0
20260506145406 23 221 12.9 12.9 0.00 0.00 0.00 41 1003.0
20260506145011 23 184 12.9 12.9 0.00 0.00 0.00 40 1003.0
20260506144807 23 162 22.5 22.5 0.00 0.00 0.00 39 1003.0
20260506144607 24 202 22.5 22.5 0.00 0.00 0.00 37 1003.0
20260506144207 23 191 22.5 22.5 0.00 0.00 0.00 37 1003.0
20260506144011 23 156 11.3 11.3 0.00 0.00 0.00 38 1003.0
20260506143810 23 132 11.3 11.3 0.00 0.00 0.00 39 1003.0
20260506143606 22 168 22.5 22.5 0.00 0.00 0.00 40 1003.0
20260506143407 22 113 12.9 12.9 0.00 0.00 0.00 41 1003.0
20260506143206 22 132 11.3 11.3 0.00 0.00 0.00 42 1003.0
20260506143015 22 68 29.0 30.6 0.00 0.00 0.00 42 1003.0
20260506142807 22 246 25.7 29.0 0.00 0.00 0.00 42 1003.0
20260506142607 22 162 12.9 12.9 0.00 0.00 0.00 43 1003.0
20260506142407 22 108 14.5 14.5 0.00 0.00 0.00 43 1003.0
20260506142205 22 156 12.9 12.9 0.00 0.00 0.00 44 1003.0
20260506142012 22 107 14.5 14.5 0.00 0.00 0.00 44 1003.0
20260506141807 22 180 22.5 22.5 0.00 0.00 0.00 43 1003.0
20260506141606 22 114 12.9 12.9 0.00 0.00 0.00 43 1003.0
20260506141207 22 146 12.9 12.9 0.00 0.00 0.00 43 1003.0
20260506141010 22 150 9.7 9.7 0.00 0.00 0.00 43 1003.0
20260506140209 24 72 9.7 9.7 0.00 0.00 0.00 40 1003.0
20260506140020 24 126 22.5 22.5 0.00 0.00 0.00 40 1003.0
20260506135606 23 174 24.1 24.1 0.00 0.00 0.00 41 1003.0
20260506135011 23 197 35.4 37.0 0.00 0.00 0.00 43 1003.0
20260506134806 23 156 11.3 11.3 0.00 0.00 0.00 41 1003.0
20260506134607 25 112 12.9 12.9 0.00 0.00 0.00 39 1003.0
20260506134407 25 166 11.3 11.3 0.00 0.00 0.00 39 1003.0
20260506134207 25 211 22.5 22.5 0.00 0.00 0.00 39 1003.0
20260506134011 25 174 24.1 27.4 0.00 0.00 0.00 39 1003.0
20260506133806 25 174 22.5 22.5 0.00 0.00 0.00 39 1003.0
20260506133606 24 146 29.0 30.6 0.00 0.00 0.00 39 1003.0
20260506133406 24 202 25.7 29.0 0.00 0.00 0.00 39 1003.0
20260506133206 24 90 14.5 14.5 0.00 0.00 0.00 40 1003.0
20260506133015 24 157 22.5 22.5 0.00 0.00 0.00 40 1003.0
20260506132807 25 210 25.7 27.4 0.00 0.00 0.00 40 1003.0
20260506132607 25 162 38.6 45.1 0.00 0.00 0.00 41 1003.0
20260506132408 25 192 29.0 30.6 0.00 0.00 0.00 41 1003.0
20260506132207 24 150 11.3 11.3 0.00 0.00 0.00 41 1003.0
20260506131807 23 198 29.0 30.6 0.00 0.00 0.00 42 1003.0
20260506131605 23 206 14.5 14.5 0.00 0.00 0.00 43 1003.0
20260506131406 23 145 14.5 14.5 0.00 0.00 0.00 45 1003.0
20260506131206 23 166 29.0 32.2 0.00 0.00 0.00 44 1003.0
20260506131011 23 174 11.3 11.3 0.00 0.00 0.00 43 1004.0
20260506130806 22 162 22.5 22.5 0.00 0.00 0.00 44 1004.0
20260506130607 22 162 14.5 14.5 0.00 0.00 0.00 45 1004.0
20260506130407 22 168 14.5 14.5 0.00 0.00 0.00 46 1004.0
20260506130207 22 174 25.7 27.4 0.00 0.00 0.00 45 1004.0
20260506130021 22 168 22.5 22.5 0.00 0.00 0.00 45 1004.0
20260506125805 22 185 11.3 11.3 0.00 0.00 0.00 44 1004.0
20260506125607 22 162 9.7 9.7 0.00 0.00 0.00 44 1004.0
20260506125406 22 209 0.0 0.0 0.00 0.00 0.00 46 1004.0
20260506125206 22 192 35.4 38.6 0.00 0.00 0.00 46 1004.0
20260506124807 21 207 12.9 12.9 0.00 0.00 0.00 46 1004.0
20260506124607 21 120 0.0 0.0 0.00 0.00 0.00 47 1004.0
20260506124011 21 196 27.4 29.0 0.00 0.00 0.00 47 1004.0
20260506123806 21 114 9.7 9.7 0.00 0.00 0.00 47 1004.0
20260506123607 22 189 9.7 9.7 0.00 0.00 0.00 47 1004.0
20260506123207 22 196 29.0 32.2 0.00 0.00 0.00 44 1004.0
20260506123017 22 192 25.7 27.4 0.00 0.00 0.00 43 1004.0
20260506122807 22 192 22.5 22.5 0.00 0.00 0.00 43 1004.0
20260506122407 21 168 8.0 8.0 0.00 0.00 0.00 45 1004.0
20260506122011 21 184 0.0 0.0 0.00 0.00 0.00 48 1004.0
20260506121807 21 184 27.4 29.0 0.00 0.00 0.00 48 1004.0
20260506121607 21 186 22.5 22.5 0.00 0.00 0.00 46 1004.0
20260506121407 22 204 22.5 22.5 0.00 0.00 0.00 45 1004.0
20260506121013 22 204 14.5 14.5 0.00 0.00 0.00 44 1004.0
20260506120607 22 195 14.5 14.5 0.00 0.00 0.00 44 1004.0
20260506120205 22 198 24.1 24.1 0.00 0.00 0.00 44 1005.0
20260506120018 22 174 9.7 9.7 0.00 0.00 0.00 44 1004.0
20260506115807 22 167 11.3 11.3 0.00 0.00 0.00 43 1004.0
20260506115607 22 180 24.1 24.1 0.00 0.00 0.00 43 1004.0
20260506115407 22 198 14.5 14.5 0.00 0.00 0.00 42 1004.0
20260506115207 22 120 12.9 12.9 0.00 0.00 0.00 42 1004.0
20260506115011 22 186 14.5 14.5 0.00 0.00 0.00 43 1005.0
20260506114807 22 198 33.8 35.4 0.00 0.00 0.00 43 1005.0
20260506114606 23 186 32.2 33.8 0.00 0.00 0.00 42 1005.0
20260506114407 23 184 24.1 27.4 0.00 0.00 0.00 41 1005.0
20260506114207 23 144 27.4 29.0 0.00 0.00 0.00 40 1005.0
20260506114012 23 224 14.5 14.5 0.00 0.00 0.00 40 1004.0
20260506113807 23 239 27.4 29.0 0.00 0.00 0.00 39 1004.0
20260506113606 22 168 0.0 0.0 0.00 0.00 0.00 41 1004.0
20260506113407 22 126 12.9 12.9 0.00 0.00 0.00 42 1004.0
20260506113207 22 201 8.0 8.0 0.00 0.00 0.00 44 1004.0
20260506113015 22 192 32.2 35.4 0.00 0.00 0.00 43 1005.0
20260506112606 22 180 11.3 11.3 0.00 0.00 0.00 43 1005.0
20260506112407 21 162 12.9 12.9 0.00 0.00 0.00 43 1005.0
20260506112206 21 128 8.0 8.0 0.00 0.00 0.00 42 1005.0
20260506112012 21 208 14.5 14.5 0.00 0.00 0.00 44 1005.0
20260506111806 21 174 14.5 14.5 0.00 0.00 0.00 44 1005.0
20260506111607 22 180 14.5 14.5 0.00 0.00 0.00 42 1005.0
20260506111407 22 186 11.3 11.3 0.00 0.00 0.00 42 1005.0
20260506111206 22 192 14.5 14.5 0.00 0.00 0.00 41 1005.0
20260506111011 22 192 11.3 11.3 0.00 0.00 0.00 40 1005.0
20260506110807 22 156 8.0 8.0 0.00 0.00 0.00 41 1005.0
20260506110606 22 183 24.1 24.1 0.00 0.00 0.00 41 1005.0
20260506110407 23 167 11.3 11.3 0.00 0.00 0.00 40 1005.0
20260506110207 23 207 22.5 22.5 0.00 0.00 0.00 39 1005.0
20260506110018 24 134 12.9 12.9 0.00 0.00 0.00 38 1005.0
20260506105806 24 162 8.0 8.0 0.00 0.00 0.00 39 1005.0
20260506105607 24 192 11.3 11.3 0.00 0.00 0.00 40 1005.0
20260506105406 23 196 22.5 22.5 0.00 0.00 0.00 41 1005.0
20260506105012 22 192 11.3 11.3 0.00 0.00 0.00 40 1005.0
20260506104607 22 186 11.3 11.3 0.00 0.00 0.00 44 1005.0
20260506104407 22 168 22.5 22.5 0.00 0.00 0.00 43 1005.0
20260506104206 22 144 0.0 0.0 0.00 0.00 0.00 43 1005.0
20260506104013 22 192 12.9 12.9 0.00 0.00 0.00 43 1005.0
20260506103807 22 206 30.6 32.2 0.00 0.00 0.00 44 1005.0
20260506103407 22 183 35.4 38.6 0.00 0.00 0.00 44 1005.0
20260506103205 22 174 12.9 12.9 0.00 0.00 0.00 45 1005.0
20260506103014 22 179 24.1 27.4 0.00 0.00 0.00 46 1005.0
20260506102807 22 211 45.1 45.1 0.00 0.00 0.00 43 1005.0
20260506102607 22 184 22.5 22.5 0.00 0.00 0.00 45 1005.0
20260506102406 22 184 14.5 14.5 0.00 0.00 0.00 44 1005.0
20260506102012 22 150 0.0 0.0 0.00 0.00 0.00 44 1005.0
20260506101808 22 90 11.3 11.3 0.00 0.00 0.00 44 1005.0
20260506101611 22 167 12.9 12.9 0.00 0.00 0.00 45 1005.0
20260506101409 22 153 9.7 9.7 0.00 0.00 0.00 46 1005.0
20260506101207 21 190 14.5 14.5 0.00 0.00 0.00 47 1005.0
20260506100606 21 174 35.4 37.0 0.00 0.00 0.00 46 1005.0
20260506100207 22 184 41.8 48.3 0.00 0.00 0.00 44 1005.0
20260506100021 22 173 8.0 8.0 0.00 0.00 0.00 44 1005.0
20260506095807 22 186 41.8 48.3 0.00 0.00 0.00 46 1005.0
20260506095407 21 192 22.5 22.5 0.00 0.00 0.00 47 1005.0
20260506095207 22 180 40.2 40.2 0.00 0.00 0.00 47 1005.0
20260506095011 22 192 29.0 30.6 0.00 0.00 0.00 43 1005.0
20260506094807 22 210 12.9 12.9 0.00 0.00 0.00 44 1005.0
20260506094406 21 186 11.3 11.3 0.00 0.00 0.00 47 1005.0
20260506094206 21 196 40.2 40.2 0.00 0.00 0.00 48 1005.0
20260506094012 21 180 0.0 0.0 0.00 0.00 0.00 50 1005.0
20260506093606 21 168 35.4 38.6 0.00 0.00 0.00 47 1005.0
20260506093406 21 178 25.7 27.4 0.00 0.00 0.00 48 1005.0
20260506093211 22 180 35.4 37.0 0.00 0.00 0.00 47 1005.0
20260506093016 21 179 9.7 9.7 0.00 0.00 0.00 50 1005.0
20260506092807 21 177 22.5 22.5 0.00 0.00 0.00 48 1005.0
20260506092606 21 189 22.5 22.5 0.00 0.00 0.00 49 1005.0
20260506092407 21 168 12.9 12.9 0.00 0.00 0.00 47 1005.0
20260506092207 21 138 8.0 8.0 0.00 0.00 0.00 49 1005.0
20260506092011 21 184 22.5 22.5 0.00 0.00 0.00 49 1005.0
20260506091807 20 179 8.0 8.0 0.00 0.00 0.00 51 1005.0
20260506091407 20 185 24.1 27.4 0.00 0.00 0.00 52 1005.0
20260506091207 20 186 30.6 32.2 0.00 0.00 0.00 51 1005.0
20260506091011 20 180 8.0 8.0 0.00 0.00 0.00 53 1005.0
20260506090807 20 179 40.2 45.1 0.00 0.00 0.00 52 1005.0
20260506090712 20 174 22.5 22.5 0.00 0.00 0.00 55 1005.0
20260506090411 20 172 14.5 14.5 0.00 0.00 0.00 54 1006.0
20260506090219 20 174 0.0 0.0 0.00 0.00 0.00 53 1006.0
20260506090031 20 192 12.9 12.9 0.00 0.00 0.00 53 1006.0
20260506085813 20 156 11.3 11.3 0.00 0.00 0.00 53 1006.0
20260506085507 21 198 35.4 37.0 0.00 0.00 0.00 50 1005.0
20260506085208 21 192 11.3 11.3 0.00 0.00 0.00 51 1005.0
20260506085012 20 191 12.9 12.9 0.00 0.00 0.00 53 1005.0
20260506084807 20 198 29.0 30.6 0.00 0.00 0.00 51 1005.0
20260506084622 20 198 14.5 14.5 0.00 0.00 0.00 53 1005.0
20260506084207 20 174 35.4 38.6 0.00 0.00 0.00 51 1005.0
20260506084013 21 102 9.7 9.7 0.00 0.00 0.00 49 1005.0
20260506083807 21 126 8.0 8.0 0.00 0.00 0.00 50 1005.0
20260506083608 21 189 27.4 29.0 0.00 0.00 0.00 50 1005.0
20260506083424 21 156 9.7 9.7 0.00 0.00 0.00 52 1006.0
20260506083023 20 146 9.7 9.7 0.00 0.00 0.00 53 1006.0
20260506082613 20 185 0.0 0.0 0.00 0.00 0.00 53 1006.0
20260506082407 20 180 22.5 22.5 0.00 0.00 0.00 54 1006.0
20260506082210 20 204 24.1 24.1 0.00 0.00 0.00 55 1006.0
20260506082012 20 197 29.0 30.6 0.00 0.00 0.00 52 1006.0
20260506081807 19 185 27.4 29.0 0.00 0.00 0.00 53 1006.0
20260506081606 19 168 12.9 12.9 0.00 0.00 0.00 59 1006.0
20260506081207 19 190 29.0 30.6 0.00 0.00 0.00 55 1006.0
20260506081013 19 192 14.5 14.5 0.00 0.00 0.00 56 1006.0
20260506080807 19 186 22.5 22.5 0.00 0.00 0.00 56 1006.0
20260506080606 18 198 0.0 0.0 0.00 0.00 0.00 59 1006.0
20260506080205 18 174 11.3 11.3 0.00 0.00 0.00 61 1005.0
20260506073409 18 210 24.1 24.1 0.00 0.00 0.00 59 1006.0
20260506073207 17 216 22.5 22.5 0.00 0.00 0.00 60 1006.0
20260506073015 17 168 22.5 22.5 0.00 0.00 0.00 59 1006.0
20260506072807 17 174 22.5 22.5 0.00 0.00 0.00 63 1006.0
20260506072607 17 180 14.5 14.5 0.00 0.00 0.00 64 1006.0
20260506072408 17 186 25.7 29.0 0.00 0.00 0.00 63 1006.0
20260506072207 18 180 37.0 40.2 0.00 0.00 0.00 61 1006.0
20260506072011 17 185 24.1 24.1 0.00 0.00 0.00 63 1006.0
20260506071807 17 180 12.9 12.9 0.00 0.00 0.00 64 1006.0
20260506071606 17 186 14.5 14.5 0.00 0.00 0.00 63 1006.0
20260506071406 17 192 22.5 22.5 0.00 0.00 0.00 66 1006.0
20260506071205 17 186 22.5 22.5 0.00 0.00 0.00 64 1006.0
20260506071009 17 180 30.6 32.2 0.00 0.00 0.00 65 1006.0
20260506070805 17 190 29.0 30.6 0.00 0.00 0.00 65 1006.0
20260506070605 17 186 32.2 35.4 0.00 0.00 0.00 64 1006.0
20260506070407 17 178 12.9 12.9 0.00 0.00 0.00 63 1006.0
20260506070206 17 168 14.5 14.5 0.00 0.00 0.00 64 1006.0
20260506062407 16 214 22.5 22.5 0.00 0.00 0.00 71 1006.0
20260506062205 16 180 22.5 22.5 0.00 0.00 0.00 69 1006.0
20260506062012 16 186 9.7 9.7 0.00 0.00 0.00 71 1006.0
20260506061807 16 180 0.0 0.0 0.00 0.00 0.00 70 1006.0
20260506061405 16 174 0.0 0.0 0.00 0.00 0.00 72 1006.0
20260506061011 15 186 12.9 12.9 0.00 0.00 0.00 73 1006.0
20260506060805 15 178 9.7 9.7 0.00 0.00 0.00 72 1006.0
20260506060607 15 174 12.9 12.9 0.00 0.00 0.00 74 1006.0
20260506060405 15 173 24.1 24.1 0.00 0.00 0.00 74 1006.0
20260506051407 13 186 14.5 14.5 0.00 0.00 0.00 84 1006.0
20260506051207 12 174 14.5 14.5 0.00 0.00 0.00 83 1006.0
20260506051011 12 179 14.5 14.5 0.00 0.00 0.00 86 1006.0
20260506050807 12 192 11.3 11.3 0.00 0.00 0.00 87 1006.0
20260506050407 12 192 12.9 12.9 0.00 0.00 0.00 86 1005.0
20260506050207 12 174 14.5 14.5 0.00 0.00 0.00 85 1005.0
20260506045012 11 286 9.7 9.7 0.00 0.00 0.00 87 1005.0
20260506044807 11 287 9.7 9.7 0.00 0.00 0.00 88 1005.0
20260506044607 11 287 0.0 0.0 0.00 0.00 0.00 88 1005.0
20260506044205 11 287 0.0 0.0 0.00 0.00 0.00 87 1005.0
20260506043807 11 287 0.0 0.0 0.00 0.00 0.00 89 1005.0
20260506043606 11 287 0.0 0.0 0.00 0.00 0.00 89 1005.0
20260506043407 11 287 0.0 0.0 0.00 0.00 0.00 88 1005.0
20260506043015 10 287 0.0 0.0 0.00 0.00 0.00 90 1005.0
20260506042807 10 287 0.0 0.0 0.00 0.00 0.00 88 1005.0
20260506042406 10 287 8.0 8.0 0.00 0.00 0.00 89 1005.0
20260506042206 9 288 9.7 9.7 0.00 0.00 0.00 91 1005.0
20260506042010 9 288 9.7 9.7 0.00 0.00 0.00 93 1005.0
20260506041807 8 288 0.0 0.0 0.00 0.00 0.00 94 1005.0
20260506041607 8 288 0.0 0.0 0.00 0.00 0.00 94 1005.0
20260506041406 8 288 0.0 0.0 0.00 0.00 0.00 95 1005.0
20260506041206 8 288 0.0 0.0 0.00 0.00 0.00 96 1005.0
20260506041008 8 288 0.0 0.0 0.00 0.00 0.00 97 1005.0
20260506040807 7 288 0.0 0.0 0.00 0.00 0.00 97 1005.0
20260506040407 7 288 0.0 0.0 0.00 0.00 0.00 96 1005.0
20260506040207 7 288 0.0 0.0 0.00 0.00 0.00 97 1005.0
20260506040019 7 288 0.0 0.0 0.00 0.00 0.00 97 1005.0
20260506035806 7 288 0.0 0.0 0.00 0.00 0.00 96 1005.0
20260506035606 7 288 0.0 0.0 0.00 0.00 0.00 98 1005.0